Showing default

SINOD-D 1, 40974

Orbit data source: Space-Track

SINOD-D 1, 40974 is a payload satellite owned by SRI (US) in LEO that was launched on Thu, 08 Oct 2015 UTC via an ATLAS V 401 launch vehicle from the Air Force Western Test Range (AFWTR). Payload-class satellites include a variety of spacecraft equipped with specific instruments for various scientific and technological missions. These include communications satellites like Starlink; space stations such as the ISS; scientific satellites like the Hubble; Earth observation satellites from companies like Planet Labs, Umbra, and HawkEye 360; GPS; miniature CubeSats for education and research; and military/defense satellites.

Loading next visibility...
Identifier
40974, 2015-058L
Orbit
LEO
Country
Flag of USUS
Related business
Manufacturer
SRI
Mission
Operational Commercial Technology
Bus & Motor
CUBESAT 2U, Unknown motor
Mass
2 kg wet, 2 kg dry
Launch date (UTC)
2015-10-08 (10 years ago)
Launch vehicle
ATLAS V 401
Launch site
Air Force Western Test Range (AFWTR)
Object type
Payload
Rocket body
Debris
Shape & HBR
Box, 0.1 m
Radar Cross Section
0.025 m², Small (<0.1 m²)

Expand to show TLE details & history
Last TLE update: 22 hours ago

TLE from 22 hours ago
0 SINOD-D 1
1 40974U 15058L   26067.56787403  .00016812  00000-0  86669-3 0  9990
2 40974  64.7597 138.3728 0079312  91.0251 269.9960 15.13765803100377
Epoch: 2026-03-08T13:37Z
TLE epoch observation values (Epoch: 2026-03-08T13:37:44.316Z)
Latitude
-0.00005°
Longitude
127.66482°
Altitude
527.193 km
Speed
7.6 km/s
True Right ascension
09h 13m 29s
True Declination
0° 00' 00"
Sunlit
Object was in full shadow at epoch
Visualization orbit readout
Latitude
Unknown
Longitude
Unknown
Altitude
Unknown
Speed
Unknown
Apparent Right ascension
Unknown
Apparent Declination
Unknown
Sunlit
N/A
Visualization observer readout
Local Sidereal Time
16:02:18
Azimuth
Unknown
Elevation
Unknown
Doppler factor
Unknown
Orbital elements
Apogee altitude
578.019 km
Perigee altitude
468.546 km
Semi-major axis
6,901.419 km
Eccentricity
0.00793
Inclination
64.7597°
RAAN
138.3728°
Arg. of periapsis
91.0251°
True anomaly
269.08719°
Mean anomaly
269.996°
Eccentric anomaly
269.54159°
Mean motion
3.78561 °/min
Orbital period
95.1 mins
BSTAR
0.00086669
Loading maneuver chart data...
Computing Atmospheric mass density...
Loading historical data...
Loading historical data...
Loading historical data...
Loading historical data...
Loading historical data...
Loading historical data...
Loading historical data...

Documentation

Showing up to 5 results
|